C/2011 W3 (Lovejoy)
Heliocentric orbit:
Epoch 2011 Dec. 25.0 TT = JDT 2455920.5  
T 2011 Dec. 16.01215 TT                                 Nakano
q   0.0055561            (2000.0)            P               Q
z  +0.0129940      Peri.   53.62368     +0.18408958     -0.90052818
 +/-0.0001059      Node   326.53588     -0.96007441     -0.07886072
e   0.9999278      Incl.  134.40997     +0.21063751     +0.42758622
a  76.96 AU         P     675.1 years

Barycentric orbit:
Epoch 2011 Dec. 25.0 TT = JDT 2455920.5  
T 2011 Dec. 15.98877 TT                                 Nakano
q   0.0062107            (2000.0)            P               Q
z  +0.0123665      Peri.   55.61327     +0.17674994     -0.91586133
                   Node   328.82979     -0.96169395     -0.08272595
e   0.9999232      Incl.  135.85311     +0.20953333     +0.39287969
From 93 observations 2011 Nov. 27-Dec. 24, mean residual 0".82.
Residuals in seconds of arc (or two decimals in units of degrees)
2011/                     111202 E10  0.6-  0.1+    111207 I47  0.8-  0.5-  
111127 E27 (3.0-  0.3-)   111203 E94  0.1+  2.1-    111207 I47  0.2-  0.6-  
111127 E27  1.3-  1.0-    111203 E94 (1.1+  3.9+)   111207 I47  0.2+  0.3-  
111129 E27  2.4-  1.6+    111203 E94 (7.7+ 10.0+)   111207 I47  0.0   0.3-  
111129 E27 (6.2-  1.3-)   111204 E03  0.3+  0.4+    111207 I47  0.5+  0.0   
111129 E27 (3.6-  3.6-)   111204 E03  0.1+  0.3-    111207 I47  0.0   0.7-  
111201 474  0.3-  0.2-    111204 E03  0.4+  0.5-    111207 I47  0.1-  0.1-  
111201 474  1.0-  0.0     111204 E03  1.4+  0.6+    111207 I47  0.3+  0.3-  
111201 474  0.7-  0.6-    111204 E03  1.4+  0.5+    111207 I47  0.7-  1.0-  
111201 474  0.7+  0.8-    111204 E03  0.0   0.8+    111207 I47  0.6+  0.2+  
111201 E27 (0.1+  4.9+)Y  111204 E03 (3.6+  2.7-)   111207 I47  0.1+  0.5-  
111201 E27  0.7-  1.3+ Y  111204 E03 (0.4+  5.7+)   111207 I47  0.3+  0.0   
111201 E27 (3.2-  0.7+)Y  111205 E03  0.4+  0.4+    111207 I47  0.6+  0.1-  
111202 I39  0.3-  0.2-    111205 E00 (4.3-  2.7-)   111207 I47  0.4-  0.4-  
111202 I39  0.8-  1.2-    111205 E03  0.7+  0.4+    111207 I47  0.3-  0.6-  
111202 I39  0.0   0.6+    111205 E03  0.5+  0.1+    111207 I47  0.0   0.1-  
111202 I36  0.6+  0.1-    111205 E03  0.1-  1.0+    111207 I47  0.5+  0.1+  
111202 I36  0.2-  0.4-    111205 E00  0.8-  0.2-    111207 E03 (2.6-  0.6-) 
111202 I36  0.4-  0.3-    111205 E03  0.1+  0.9+    111208 I47  1.6-  1.5-  
111202 I36  0.3-  0.2+    111205 E00  1.6-  2.1-    111208 I47  1.0-  0.9-  
111202 807  0.2-  0.1+    111205 E00  1.2-  0.4+    111208 I47  1.0-  0.8-  
111202 807  0.3-  0.1-    111206 I47  1.6+  0.2+    111208 I47  0.5-  0.8-  
111202 807  0.0   0.9+    111206 I47  0.3+  1.2+    111208 I47  1.4-  0.6-  
111202 E94 (5.7-  2.3-)   111206 I47  1.0+  0.1+    111208 I47  1.2-  1.7-  
111202 E94 (8.2- 11.7-)   111206 I47  1.0+  0.5+    111208 I47  1.2-  1.1-  
111202 E94 (2.3+  6.2+)   111206 I47  2.0+  1.7+    111210 I47 (3.5-  6.1-) 
111202 E94  1.7+  0.8+    111206 I47  1.0-  0.7+    111210 I47 (3.6-  0.5+) 
111202 E94  1.2+  0.2-    111206 I47  0.7+  0.7-    111210 I47  1.8-  0.4+  
111202 E00 (5.5+  0.6+)   111206 I47  1.3+  0.4+    111210 I47 (2.9-  1.1-) 
111202 E00  0.8-  1.5+    111206 I47  0.9-  1.2+    111217 C49(80.0+  7.9+)Y
111202 E00 (1.6+  3.5+)   111206 I47  1.1+  0.5+    111218 C49(93.9+ 26.7-)Y
111202 E03  1.4-  0.8-    111206 E03  0.3+  0.6+    111218 C49(0.03+ 0.00+)Y
111202 E03  1.4+  0.4+    111206 E03  0.8+  0.5+    111219 C49(86.1-  9.4+)Y
111202 E10  0.2-  0.2-    111206 E03  0.5+  0.6+    111219 C49(41.5- 51.6+)Y
111202 E10  0.5-  0.0     111206 E03  0.2+  0.3+    111219 C49(12.5- 29.6-)Y
111202 E10  0.7+  0.0     111206 E03  0.1-  0.3+    111219 C49(26.0- 22.8-)Y
111202 E10  1.5+  0.5+    111207 I47  0.1-  0.0     111219 C49(65.2- 12.0+)Y
111202 E10  0.1+  0.0     111207 I47  0.4-  0.5-    111223 E12  1.8-  0.8+  
111202 E10  0.1+  1.3+    111207 I47  1.0+  0.2+    111224 E12(13.0- 15.7-) 
111202 E10  0.8+  0.9+    111207 I47  0.1-  0.5-    111224 E12  1.6+  0.8-  
111202 E10  1.1+  0.4+    111207 I47  0.6+  0.9-                            
NAKANO
         **** Don't distribute anyone except personal use only ****
           (C) Copyright 2012 Orbit.Astro.Assoc./ComputingSection
write mail from CFAD0::NAKANO on 2012-01-02 08:59:41(JST).
 



 東京の佐藤英貴氏は,12月2日と4日にこの彗星の再観測に成功しました.氏の
CCD全光度は,それぞれ,11.0等と10.7等でした.前回の軌道からのずれは,ほとん
どありませんでした.氏の観測では,彗星には,東北方向に伸びた(12月2日)
集光した2'のコマが見られるとのことです.小型のクロイツ群の彗星の1つですが,
太陽の近傍で消滅しなければ,それなりの姿が見えるかも知れません.

    C/2011 W3 (Lovejoy)
T 2011 Dec. 15.99408 TT                                 Nakano
q   0.0056530            (2000.0)            P               Q
                   Peri.   52.50336     +0.18528354     -0.89174043
                   Node   325.11302     -0.96045812     -0.07547711
e   1.0            Incl.  133.79112     +0.20782253     +0.44620871
From 35 observations 2011 Dec. 1-4.
Residuals in seconds of arc (or two decimals in units of degrees)
2011/                     111202 I36  0.2-  0.5-    111202 E10  1.2+  0.3+  
111127 E27(0.10- 0.03+)X  111202 I36  0.4-  0.5-    111202 E10  0.1-  0.2-  
111127 E27(0.08- 0.01+)X  111202 I36  0.4-  0.1+    111202 E10  0.2-  1.1+  
111127 E27(0.08- 0.02+)X  111202 807  0.2-  0.0     111202 E10  0.5+  0.7+  
111129 E27 (0.1- 32.0+)X  111202 807  0.3-  0.2-    111202 E10  0.9+  0.2+  
111129 E27 (6.9- 32.2+)X  111202 807  0.1-  0.8+    111202 E10  0.9-  0.1-  
111129 E27(12.1- 32.4+)X  111202 E94 (5.8-  2.4-)   111203 E94 (0.5-  2.3-) 
111129 E27(17.3- 32.6+)X  111202 E94 (8.3- 11.8-)   111203 E94 (0.6+  3.6+) 
111201 474  0.3+  0.1-    111202 E94 (2.2+  6.1+)   111203 E94 (7.2+  9.7+) 
111201 474  0.5-  0.0     111202 E94  1.5+  0.6+    111204 E03  0.3-  0.1+  
111201 474  0.2-  0.5-    111202 E94  1.0+  0.3-    111204 E03  0.5-  0.6-  
111201 474  1.3+  0.8-    111202 E00 (5.3+  0.5+)   111204 E03  0.2-  0.8-  
111201 E27 (0.6+  4.9+)Y  111202 E00  1.0-  1.4+    111204 E03  0.9+  0.3+  
111201 E27  0.2-  1.3+ Y  111202 E00 (1.4+  3.4+)   111204 E03  0.8+  0.2+  
111201 E27 (2.7-  0.6+)Y  111202 E03  1.6-  0.9-    111204 E03  0.6-  0.5+  
111202 I39  0.3-  0.3-    111202 E03  1.1+  0.2+    111204 E03 (3.0+  3.1-) 
111202 I39  0.8-  1.3-    111202 E10  0.4-  0.3-    111204 E03 (0.2-  5.4+) 
111202 I39  0.0   0.5+    111202 E10  0.8-  0.2-                            
111202 I36  0.6+  0.2-    111202 E10  0.4+  0.2-                            

